• In Czech Republic
  • List of Countries
  • For 7 days
  • Water Temperature
  • Satellite Maps
  • Weather Map
  • Weather Widgets
  • user-avatar
    Login

    Hourly Weather Vancouver

    Today, 19 October, Thursday

    Time Temperature Precipitation Wind Pressure Humidity
    00:00 +10°C° 0.6 mm 4 mps 744 mmHg 96%
    01:00 +10°C° 0.6 mm 4 mps 744 mmHg 96%
    02:00 +10°C° 0.9 mm 4 mps 744 mmHg 97%
    03:00 +10°C° 0.9 mm 4 mps 744 mmHg 97%
    04:00 +10°C° 0.9 mm 4 mps 744 mmHg 97%
    05:00 +10°C° 0.9 mm 4 mps 743 mmHg 97%
    06:00 +10°C° 0.9 mm 4 mps 743 mmHg 97%
    07:00 +10°C° 0.9 mm 4 mps 743 mmHg 97%
    08:00 +10°C° 0.9 mm 4 mps 743 mmHg 96%
    09:00 +10°C° 0.9 mm 4 mps 743 mmHg 94%
    10:00 +11°C° 0.9 mm 4 mps 743 mmHg 93%
    11:00 +11°C° 1.5 mm 4 mps 743 mmHg 93%
    12:00 +11°C° 1.5 mm 4 mps 742 mmHg 93%
    13:00 +11°C° 1.5 mm 4 mps 742 mmHg 93%
    14:00 +11°C° 1.8 mm 4 mps 742 mmHg 94%
    15:00 +10°C° 1.8 mm 3 mps 741 mmHg 95%
    16:00 +10°C° 1.8 mm 3 mps 741 mmHg 96%
    17:00 +10°C° 1.6 mm 3 mps 741 mmHg 97%
    18:00 +10°C° 1.6 mm 3 mps 741 mmHg 97%
    19:00 +10°C° 1.6 mm 2 mps 742 mmHg 98%
    20:00 +9°C° 0.6 mm 2 mps 742 mmHg 98%
    21:00 +9°C° 0.6 mm 2 mps 742 mmHg 97%
    22:00 +9°C° 0.6 mm 2 mps 742 mmHg 97%
    23:00 +9°C° 0.1 mm 2 mps 743 mmHg 97%

    Tomorrow, 20 October, Friday

    Time Temperature Precipitation Wind Pressure Humidity
    00:00 +9°C° 0.1 mm 2 mps 743 mmHg 97%
    01:00 +8°C° 0.1 mm 2 mps 743 mmHg 98%
    02:00 +8°C° 0.2 mm 2 mps 744 mmHg 97%
    03:00 +8°C° 0.2 mm 2 mps 744 mmHg 97%
    04:00 +8°C° 0.2 mm 2 mps 745 mmHg 97%
    05:00 +8°C° 0.7 mm 2 mps 745 mmHg 97%
    06:00 +9°C° 0.7 mm 1 mps 746 mmHg 97%
    07:00 +9°C° 0.7 mm 1 mps 746 mmHg 97%
    08:00 +9°C° 0.9 mm 1 mps 747 mmHg 97%
    09:00 +8°C° 0.9 mm 2 mps 747 mmHg 96%
    10:00 +9°C° 0.9 mm 2 mps 748 mmHg 96%
    11:00 +9°C° 0.6 mm 2 mps 748 mmHg 94%
    12:00 +9°C° 0.6 mm 2 mps 748 mmHg 92%
    13:00 +10°C° 0.6 mm 2 mps 749 mmHg 90%
    14:00 +10°C° 0.4 mm 2 mps 749 mmHg 89%
    15:00 +9°C° 0.4 mm 2 mps 750 mmHg 88%
    16:00 +9°C° 0.4 mm 2 mps 750 mmHg 87%
    17:00 +8°C° 0.3 mm 2 mps 751 mmHg 89%
    18:00 +7°C° 0.3 mm 2 mps 752 mmHg 91%
    19:00 +5°C° 0.3 mm 3 mps 753 mmHg 93%
    20:00 +5°C° 0.1 mm 3 mps 754 mmHg 93%
    21:00 +5°C° 0.1 mm 3 mps 754 mmHg 94%
    22:00 +6°C° 0.1 mm 2 mps 755 mmHg 94%
    23:00 +6°C° 0.1 mm 2 mps 755 mmHg 95%

    Day after tomorrow, 21 October, Saturday

    Time Temperature Precipitation Wind Pressure Humidity
    00:00 +5°C° 0.1 mm 2 mps 755 mmHg 95%
    01:00 +5°C° 0.1 mm 2 mps 756 mmHg 95%
    02:00 +5°C° 0.1 mm 2 mps 756 mmHg 95%
    03:00 +5°C° 0.1 mm 2 mps 756 mmHg 95%
    04:00 +5°C° 0.1 mm 2 mps 756 mmHg 95%
    05:00 +4°C° 0 mm 3 mps 755 mmHg 94%
    06:00 +4°C° 0 mm 3 mps 755 mmHg 93%
    07:00 +4°C° 0 mm 3 mps 755 mmHg 92%
    08:00 +5°C° 0.2 mm 3 mps 754 mmHg 89%
    09:00 +7°C° 0.2 mm 3 mps 753 mmHg 86%
    10:00 +8°C° 0.2 mm 3 mps 752 mmHg 83%
    11:00 +8°C° 1.2 mm 3 mps 751 mmHg 85%
    12:00 +8°C° 1.2 mm 3 mps 751 mmHg 88%
    13:00 +7°C° 1.2 mm 3 mps 750 mmHg 90%
    14:00 +7°C° 2.4 mm 3 mps 750 mmHg 92%
    15:00 +7°C° 2.4 mm 3 mps 749 mmHg 94%
    16:00 +7°C° 2.4 mm 3 mps 749 mmHg 96%
    17:00 +7°C° 1.8 mm 3 mps 749 mmHg 96%
    18:00 +7°C° 1.8 mm 2 mps 749 mmHg 97%
    19:00 +7°C° 1.8 mm 2 mps 749 mmHg 97%
    20:00 +7°C° 1.3 mm 2 mps 750 mmHg 97%
    21:00 +7°C° 1.3 mm 2 mps 750 mmHg 97%
    22:00 +8°C° 1.3 mm 1 mps 750 mmHg 98%
    23:00 +8°C° 0.6 mm 2 mps 751 mmHg 98%

    22 October, Sunday

    Time Temperature Precipitation Wind Pressure Humidity
    00:00 +8°C° 0.6 mm 2 mps 751 mmHg 98%
    01:00 +8°C° 0.6 mm 2 mps 751 mmHg 98%
    02:00 +9°C° 0.6 mm 2 mps 752 mmHg 98%
    03:00 +9°C° 0.6 mm 2 mps 752 mmHg 98%
    04:00 +9°C° 0.6 mm 2 mps 752 mmHg 98%
    05:00 +9°C° 0.3 mm 2 mps 753 mmHg 98%
    06:00 +10°C° 0.3 mm 3 mps 753 mmHg 98%
    07:00 +10°C° 0.3 mm 3 mps 754 mmHg 98%
    08:00 +10°C° 0.4 mm 3 mps 754 mmHg 98%
    09:00 +11°C° 0.4 mm 3 mps 754 mmHg 98%
    10:00 +11°C° 0.4 mm 3 mps 755 mmHg 98%
    11:00 +11°C° 1 mm 3 mps 755 mmHg 97%
    12:00 +11°C° 1 mm 3 mps 755 mmHg 96%
    13:00 +12°C° 1 mm 3 mps 755 mmHg 95%
    14:00 +12°C° 0.5 mm 3 mps 756 mmHg 94%
    15:00 +11°C° 0.5 mm 3 mps 756 mmHg 93%
    16:00 +11°C° 0.5 mm 3 mps 756 mmHg 92%
    17:00 +11°C° 0.6 mm 4 mps 757 mmHg 93%
    18:00 +10°C° 0.6 mm 4 mps 758 mmHg 94%
    19:00 +10°C° 0.6 mm 4 mps 759 mmHg 94%
    20:00 +8°C° 0.2 mm 4 mps 760 mmHg 95%
    21:00 +9°C° 0.2 mm 3 mps 761 mmHg 95%
    22:00 +9°C° 0.2 mm 3 mps 762 mmHg 95%
    23:00 +8°C° 0 mm 2 mps 764 mmHg 95%

    23 October, Monday

    Time Temperature Precipitation Wind Pressure Humidity
    00:00 +8°C° 0 mm 2 mps 765 mmHg 96%
    01:00 +7°C° 0 mm 2 mps 766 mmHg 96%
    02:00 +8°C° 0 mm 1 mps 767 mmHg 96%
    03:00 +8°C° 0 mm 1 mps 768 mmHg 96%
    04:00 +8°C° 0 mm 1 mps 769 mmHg 96%
    05:00 +8°C° 0 mm 1 mps 770 mmHg 96%
    06:00 +8°C° 0 mm 1 mps 770 mmHg 96%
    07:00 +8°C° 0 mm 1 mps 771 mmHg 96%
    08:00 +9°C° 0 mm 1 mps 771 mmHg 93%
    09:00 +10°C° 0 mm 1 mps 772 mmHg 90%
    10:00 +12°C° 0 mm 1 mps 772 mmHg 87%
    11:00 +12°C° 0 mm 1 mps 772 mmHg 85%
    12:00 +13°C° 0 mm 1 mps 772 mmHg 84%
    13:00 +13°C° 0 mm 1 mps 772 mmHg 82%
    14:00 +13°C° 0 mm 1 mps 772 mmHg 84%
    15:00 +12°C° 0 mm 1 mps 773 mmHg 85%
    16:00 +12°C° 0 mm 1 mps 773 mmHg 86%
    17:00 +11°C° 0 mm 1 mps 773 mmHg 88%
    18:00 +10°C° 0 mm 1 mps 773 mmHg 90%
    19:00 +9°C° 0 mm 1 mps 774 mmHg 92%
    20:00 +9°C° 0 mm 1 mps 774 mmHg 92%
    21:00 +9°C° 0 mm 1 mps 774 mmHg 91%
    22:00 +8°C° 0 mm 1 mps 774 mmHg 90%
    23:00 +8°C° 0 mm 1 mps 774 mmHg 89%

    24 October, Tuesday

    Time Temperature Precipitation Wind Pressure Humidity
    00:00 +8°C° 0 mm 1 mps 774 mmHg 88%
    01:00 +8°C° 0 mm 1 mps 773 mmHg 87%
    02:00 +7°C° 0 mm 2 mps 773 mmHg 86%
    03:00 +7°C° 0 mm 2 mps 773 mmHg 85%
    04:00 +7°C° 0 mm 2 mps 773 mmHg 84%
    05:00 +7°C° 0 mm 2 mps 773 mmHg 84%
    06:00 +7°C° 0 mm 2 mps 772 mmHg 83%
    07:00 +7°C° 0 mm 2 mps 772 mmHg 83%
    08:00 +10°C° 0 mm 1 mps 771 mmHg 78%
    09:00 +13°C° 0 mm 1 mps 770 mmHg 74%
    10:00 +15°C° 0 mm 1 mps 769 mmHg 70%
    11:00 +16°C° 0 mm 1 mps 768 mmHg 68%
    12:00 +18°C° 0 mm 1 mps 768 mmHg 65%
    13:00 +19°C° 0 mm 1 mps 767 mmHg 63%
    14:00 +19°C° 0 mm 1 mps 766 mmHg 67%
    15:00 +18°C° 0 mm 1 mps 766 mmHg 72%
    16:00 +18°C° 0 mm 1 mps 765 mmHg 77%
    17:00 +15°C° 0 mm 2 mps 765 mmHg 79%
    18:00 +14°C° 0 mm 2 mps 765 mmHg 82%
    19:00 +12°C° 0 mm 2 mps 765 mmHg 85%
    20:00 +12°C° 0 mm 2 mps 764 mmHg 83%
    21:00 +12°C° 0 mm 2 mps 763 mmHg 80%
    22:00 +12°C° 0 mm 1 mps 763 mmHg 78%
    23:00 +12°C° 0 mm 1 mps 763 mmHg 77%
    Show more